Hourly Data Report for December 23, 2019

MUSKOKA
ONTARIO
Current Station Operator: NAVCAN

44°58'29.000" N
79°18'12.000" W
281.90 m
6115529
71532
YQA

Download Data

Hourly Data (December 2019)
Hourly Data Report for December 23, 2019
TIME
LST
Temp Definition
°C
Dew Point Definition
°C
Rel Hum Definition
%
Precip. Amount Definition
mm

Wind Dir Definition
10's deg

Wind Spd Definition
km/h
Visibility Definition
km
Stn Press Definition
kPa
Hmdx Definition


Wind Chill Definition


Weather Definition


00:00 -2.9 -3.2 98 0.0 16 9 1.6 98.15   -6 Snow
01:00 -2.6 -3.0 97 0.0 16 8 2.0 98.08   -6 Fog
02:00 -2.7 -3.1 97 0.0 14 5 2.8 98.04   -5 Fog
03:00 -3.4 -3.9 96 0.0 17 5 4.8 98.06   -5 Fog
04:00 -4.6 -5.0 97 0.0 17 5 0.2 97.98   -7 Heavy Snow
05:00 -5.0 -5.4 97 0.0 16 8 2.0 97.93   -9 Fog
06:00 0.1 -0.3 97 0.0 23 15 16.1 97.91     LegendNANA
07:00 1.2 -0.3 90 0.0 22 13 16.1 97.92     LegendNANA
08:00 -1.0 -2.3 91 0.0 21 8 14.5 97.86   -4 LegendNANA
09:00 -2.7 -3.7 93 0.0 15 5 11.3 97.86   -5 LegendNANA
10:00 2.8 -0.1 81 0.0 22 13 16.1 97.90     LegendNANA
11:00 4.3 0.3 75 0.0 26 15 16.1 97.89     LegendNANA
12:00 5.0 0.6 73 0.0 27 17 16.1 97.84     LegendNANA
13:00 5.0 0.8 74 0.0 28 18 16.1 97.84     LegendNANA
14:00 4.5 1.2 79 0.0 28 17 16.1 97.82     LegendNANA
15:00 4.0 1.0 81 0.0 30 18 16.1 97.89     LegendNANA
16:00 3.6 0.8 82 0.0 29 15 16.1 97.98     LegendNANA
17:00 3.0 0.1 81 0.0 29 13 16.1 98.07     LegendNANA
18:00 2.3 -0.3 83 0.0 32 15 16.1 98.16     LegendNANA
19:00 2.6 -1.9 72 0.0 34 13 16.1 98.30     LegendNANA
20:00 1.5 -3.0 72 0.0 33 17 16.1 98.40     LegendNANA
21:00 0.8 -3.9 71 0.0 35 13 16.1 98.48     LegendNANA
22:00 0.0 -4.5 72 0.0 34 13 16.1 98.60   -4 LegendNANA
23:00 -1.5 -5.6 74 0.0 35 8 16.1 98.71   -5 LegendNANA

Notes on Data Quality.

Legend

  • E = Estimated
  • M = Missing
  • NA = Not Available*
  • [empty] = Indicates an unobserved value
Date modified: